Location: Newark
(54.2500°N, 9.1833°E)
Time: 13:21:32
(UTC+00:00)

SR - All Passes

Search period start: 14 December 2019 00:00
Search period end: 24 December 2019 00:00
Orbit: 573 x 882 km, 66.7° (Epoch: 13 December)

Date Brightness Start Highest point End Pass type
(mag) Time Alt. Az. Time Alt. Az. Time Alt. Az.
14 Dec - 06:48:44 10° SE 06:52:11 17° ESE 06:55:45 10° ENE visible
14 Dec - 08:27:42 10° SSW 08:33:19 70° SE 08:39:15 10° NE daylight
14 Dec - 10:10:25 10° WSW 10:15:53 41° NNW 10:21:32 10° NE daylight
14 Dec - 11:54:41 10° WNW 11:59:31 25° N 12:04:21 10° NE daylight
14 Dec - 13:38:14 10° NW 13:43:23 29° NNE 13:48:28 10° ENE daylight
14 Dec - 15:20:40 10° NW 15:26:36 64° NE 15:32:17 10° SE daylight
14 Dec - 17:03:09 10° NW 17:08:31 37° WSW 17:13:38 10° S visible
15 Dec - 07:38:30 10° S 07:43:49 44° ESE 07:49:23 10° NE daylight
15 Dec - 09:20:15 10° WSW 09:25:54 56° NW 09:31:48 10° NE daylight
15 Dec - 11:04:14 10° WNW 11:09:14 28° NNW 11:14:17 10° NE daylight
15 Dec - 12:48:13 10° NW 12:53:08 26° N 12:58:00 10° ENE daylight
15 Dec - 14:30:56 10° NW 14:36:40 45° NE 14:42:12 10° ESE daylight
15 Dec - 16:13:14 10° NW 16:19:04 59° WSW 16:24:36 10° SSE visible
15 Dec - 17:57:16 10° WNW 18:00:01 14° WSW 18:02:42 10° SW visible
16 Dec - 06:49:50 10° SSE 06:54:28 27° ESE 06:59:19 10° NE visible
16 Dec - 08:30:20 10° SW 08:36:04 82° NW 08:42:04 10° NE daylight
16 Dec - 10:13:47 10° W 10:19:02 33° NNW 10:24:23 10° NE daylight
16 Dec - 11:58:02 10° NW 12:02:50 24° N 12:07:37 10° NE daylight
16 Dec - 13:41:09 10° NW 13:46:35 35° NNE 13:51:53 10° E daylight
16 Dec - 15:23:27 10° NW 15:29:27 90° NE 15:35:08 10° SE daylight
16 Dec - 17:06:22 10° WNW 17:10:54 23° WSW 17:15:15 10° SSW visible
17 Dec - 06:01:59 10° SE 06:05:18 16° ESE 06:08:42 10° ENE visible
17 Dec - 07:40:46 10° SSW 07:46:24 67° SE 07:52:18 10° NE daylight
17 Dec - 09:23:25 10° WSW 09:28:56 42° NNW 09:34:35 10° NE daylight
17 Dec - 11:07:40 10° WNW 11:12:32 25° N 11:17:23 10° NE daylight
17 Dec - 12:51:17 10° NW 12:56:24 29° NNE 13:01:27 10° ENE daylight
17 Dec - 14:33:43 10° NW 14:39:39 62° NE 14:45:18 10° ESE daylight
17 Dec - 16:16:13 10° NW 16:21:37 38° WSW 16:26:45 10° S visible
18 Dec - 06:51:36 10° S 06:56:54 42° ESE 07:02:26 10° NE visible
18 Dec - 08:33:16 10° WSW 08:38:57 58° NW 08:44:52 10° NE daylight
18 Dec - 10:17:14 10° WNW 10:22:15 28° NNW 10:27:20 10° NE daylight
18 Dec - 12:01:14 10° NW 12:06:09 25° N 12:11:00 10° ENE daylight
18 Dec - 13:44:00 10° NW 13:49:42 44° NNE 13:55:12 10° ESE daylight
18 Dec - 15:26:18 10° NW 15:32:09 62° WSW 15:37:41 10° SSE daylight
18 Dec - 17:10:12 10° WNW 17:13:08 14° WSW 17:16:01 10° SW visible
19 Dec - 06:02:59 10° SSE 06:07:35 26° ESE 06:12:20 10° ENE visible
19 Dec - 07:43:23 10° SW 07:49:08 84° NW 07:55:09 10° NE daylight
19 Dec - 09:26:45 10° W 09:32:03 34° NNW 09:37:27 10° NE daylight
19 Dec - 11:11:02 10° NW 11:15:51 24° N 11:20:37 10° NE daylight
19 Dec - 12:54:12 10° NW 12:59:37 34° NNE 13:04:52 10° E daylight
19 Dec - 14:36:31 10° NW 14:42:31 87° NE 14:48:10 10° SE daylight
19 Dec - 16:19:24 10° WNW 16:24:00 24° WSW 16:28:25 10° SSW visible
20 Dec - 05:15:15 10° SE 05:18:25 15° ESE 05:21:40 10° ENE visible
20 Dec - 06:53:50 10° SSW 06:59:28 64° SE 07:05:22 10° NE visible
20 Dec - 08:36:25 10° WSW 08:41:58 43° NNW 08:47:39 10° NE daylight
20 Dec - 10:20:40 10° WNW 10:25:32 25° N 10:30:25 10° NE daylight
20 Dec - 12:04:19 10° NW 12:09:26 28° NNE 12:14:26 10° ENE daylight
20 Dec - 13:46:48 10° NW 13:52:42 60° NE 13:58:19 10° ESE daylight
20 Dec - 15:29:15 10° NW 15:34:42 40° WSW 15:39:52 10° S daylight
21 Dec - 06:04:43 10° S 06:09:59 40° ESE 06:15:29 10° NE visible
21 Dec - 07:46:17 10° WSW 07:52:00 60° NW 07:57:56 10° NE daylight
21 Dec - 09:30:12 10° WNW 09:35:16 28° NNW 09:40:23 10° NE daylight
21 Dec - 11:14:16 10° NW 11:19:10 25° N 11:23:59 10° ENE daylight
21 Dec - 12:57:04 10° NW 13:02:44 43° NNE 13:08:11 10° ESE daylight
21 Dec - 14:39:21 10° NW 14:45:13 64° SW 14:50:45 10° SSE daylight
21 Dec - 16:23:08 10° WNW 16:26:15 15° WSW 16:29:17 10° SW visible
22 Dec - 05:16:09 10° SSE 05:20:41 25° ESE 05:25:21 10° ENE visible
22 Dec - 06:56:25 10° SW 07:02:12 87° NW 07:08:12 10° NE visible
22 Dec - 08:39:45 10° W 08:45:04 34° NNW 08:50:30 10° NE daylight
22 Dec - 10:24:03 10° NW 10:28:51 24° N 10:33:37 10° NE daylight
22 Dec - 12:07:16 10° NW 12:12:38 33° NNE 12:17:51 10° E daylight
22 Dec - 13:49:35 10° NW 13:55:34 84° NE 14:01:13 10° SE daylight
22 Dec - 15:32:25 10° WNW 15:37:06 25° WSW 15:41:35 10° SSW daylight
23 Dec - 04:28:32 10° SE 04:31:32 15° ESE 04:34:36 10° ENE visible
23 Dec - 06:06:55 10° SSW 06:12:33 62° ESE 06:18:26 10° NE visible
23 Dec - 07:49:25 10° WSW 07:55:00 45° NNW 08:00:43 10° NE daylight
23 Dec - 09:33:39 10° WNW 09:38:33 26° N 09:43:26 10° NE daylight
23 Dec - 11:17:22 10° NW 11:22:27 28° NNE 11:27:25 10° ENE daylight
23 Dec - 12:59:52 10° NW 13:05:45 58° NE 13:11:20 10° ESE daylight
23 Dec - 14:42:18 10° NW 14:47:47 41° WSW 14:52:58 10° S daylight
